This is the latest recevied weather packets stored in our database for station/object ES0THZ-13. If no packets are shown the sender has not sent any weather packets the latest 10 day(s).
| Time | Temp. | Humidity | Pressure | Rain* | Wind** | Luminosity | Snow |
|---|---|---|---|---|---|---|---|
| 1777489356 | 3.33° C | 62% | 1020.5 hPa | - | - | - | - |
| 1777487181 | 3.89° C | 59% | 1021.6 hPa | - | - | - | - |
| 1777485056 | 4.44° C | 57% | 1021.7 hPa | - | - | - | - |
| 1777483916 | 5° C | 55% | 1022.1 hPa | - | - | - | - |
| 1777482901 | 6.11° C | 54% | 1021.7 hPa | - | - | - | - |
| 1777481786 | 7.22° C | 53% | 1020.9 hPa | - | - | - | - |
| 1777480721 | 7.78° C | 53% | 1021.4 hPa | - | - | - | - |
| 1777479666 | 9.44° C | 53% | 1022.1 hPa | - | - | - | - |
| 1777478576 | 8.33° C | 53% | 1022 hPa | - | - | - | - |
| 1777477491 | 7.78° C | 52% | 1021.4 hPa | - | - | - | - |
| 1777476306 | 8.89° C | 52% | 1021.7 hPa | - | - | - | - |
| 1777475211 | 10° C | 51% | 1023 hPa | - | - | - | - |
| 1777474126 | 10.56° C | 50% | 1022.4 hPa | - | - | - | - |
| 1777473121 | 11.11° C | 49% | 1022.7 hPa | - | - | - | - |
| 1777472086 | 11.11° C | 48% | 1022.9 hPa | - | - | - | - |
| 1777469826 | 10° C | 49% | 1023.3 hPa | - | - | - | - |
| 1777468701 | 10.56° C | 49% | 1022.8 hPa | - | - | - | - |
| 1777467586 | 10.56° C | 49% | 1021.8 hPa | - | - | - | - |
| 1777466431 | 11.11° C | 49% | 1021.9 hPa | - | - | - | - |
| 1777465366 | 10.56° C | 49% | 1022.8 hPa | - | - | - | - |
| 1777464206 | 11.11° C | 49% | 1023.6 hPa | - | - | - | - |
| 1777463191 | 11.67° C | 50% | 1021.4 hPa | - | - | - | - |
| 1777462081 | 11.11° C | 50% | 1022.7 hPa | - | - | - | - |
| 1777460936 | 11.11° C | 51% | 1022.3 hPa | - | - | - | - |
| 1777459931 | 11.67° C | 52% | 1022 hPa | - | - | - | - |
* Rain since midnight (hover to see other rain measurements)
** Current wind speed in m/s (hover to see current wind gust speed)